[[{"header":{"parameterUnit":"m.s-1","parameterCategory":2,"la1":30.2992,"la2":30.254,"lo1":-89.0895,"lo2":-89.0443,"dy":0.0025,"dx":0.0025,"nx":19,"ny":19,"refTime":"2026-04-24T21:00:00:Z","depth":"0","parameterNumber":2,"parameterNumberName":"U-component_of_CURRENTS"},"data":[0,0,0,0.4119,0.4121,0.4267,0.4268,0.4404,0.4405,0,0,0,0,0,0,0,0,0,0,0,0.4062,0.4063,0.4118,0.4122,0.4267,0.4268,0.4403,0.4405,0,0,0,0,0,0,0,0,0,0,0,0.4061,0.4062,0.4063,0.4122,0.4267,0.4268,0.4403,0.4307,0,0,0,0,0,0,0,0,0,0,0.4173,0.411,0.4062,0.4063,0.4123,0.4267,0.4268,0.4303,0.4313,0.4321,0,0.4339,0,0.4374,0.4412,0.4412,0,0,0,0.4128,0.4102,0.4156,0.4063,0.4124,0.4267,0.4204,0.4309,0.4321,0.4334,0.4341,0.4347,0.4377,0.4413,0.4413,0.4504,0.4504,0,0,0.412,0.4076,0.4149,0.4163,0.4156,0.4199,0.4208,0.4317,0.4315,0.4342,0.4351,0.4379,0.4413,0.4414,0.4504,0.4504,0,0,0,0.4093,0.407,0.4123,0.4157,0.4187,0.4203,0.4213,0.431,0.4332,0.4352,0.438,0.4414,0.4415,0.4503,0.4504,0.4486,0,0,0,0.4088,0.4054,0.4119,0.4092,0.4185,0.4254,0.4204,0.4325,0.4338,0.438,0.4414,0.4416,0.4503,0.4504,0.4486,0.449,0,0,0,0.4056,0.405,0.4069,0.409,0.4153,0.4254,0.4282,0.4329,0.4355,0.4412,0.4417,0.4503,0.4504,0.4486,0.449,0.4486,0,0,0,0.4005,0.4022,0.4067,0.4102,0.4152,0.4231,0.4282,0.4344,0.439,0.4415,0.4503,0.4504,0.4486,0.449,0.4487,0.4332,0.432,0,0,0.4,0.402,0.4046,0.4091,0.4155,0.4212,0.4275,0.4357,0.44,0.4465,0.4468,0.4486,0.449,0.4487,0.4357,0.4343,0,0,0,0.4028,0.4045,0.4075,0.4124,0.4189,0.4254,0.4325,0.4363,0.4443,0.443,0.45,0.4503,0.4501,0.4408,0.4398,0.4134,0.4506,0.4506,0.4506,0.3905,0.399,0.4034,0.4137,0.4184,0.428,0.4342,0.4408,0.4434,0.4466,0.4498,0.4499,0.4399,0.439,0.412,0.4503,0.4503,0.4503,0.4503,0.3899,0.3926,0.4022,0.4104,0.4175,0.4228,0.4351,0.4397,0.4484,0.4498,0.4496,0.4406,0.4377,0.4093,0.4502,0.4502,0.4502,0.4502,0.4502,0.3823,0.3848,0.3927,0.4037,0.4099,0.42,0.4262,0.4375,0.4462,0.4496,0.4388,0.4386,0.4129,0.4483,0.4483,0.4483,0.4483,0.4483,0.4483,0.3693,0.3783,0.3823,0.3965,0.4001,0.4069,0.4214,0.4282,0.4346,0.4369,0.4367,0.408,0.4493,0.4484,0.4483,0.4483,0.4483,0.4483,0.4483,0.3564,0.3625,0.3687,0.3736,0.3835,0.3783,0.3986,0.403,0.4145,0.4139,0.3883,0.4297,0.4291,0.4297,0.4284,0.4232,0.4232,0.4232,0.4232,0.342,0.348,0.3484,0.3521,0.358,0.362,0.3463,0.3566,0.3634,0.3577,0.3632,0.3547,0.3569,0.3517,0.3541,0.3511,0.3264,0.3263,0.3262,0.3274,0.333,0.3245,0.335,0.3421,0.3358,0.3071,0.2893,0.3058,0.3201,0.3292,0.3333,0.3193,0.325,0.3161,0.3216,0.3169,0,0]},{"header":{"parameterUnit":"m.s-1","parameterCategory":2,"la1":30.2992,"la2":30.254,"lo1":-89.0895,"lo2":-89.0443,"dy":0.0025,"dx":0.0025,"nx":19,"ny":19,"refTime":"2026-04-24T21:00:00:Z","depth":"0","parameterNumber":3,"parameterNumberName":"V-component_of_CURRENTS"},"data":[0,0,0,-0.0283,-0.0287,-0.052,-0.0521,-0.0789,-0.0791,0,0,0,0,0,0,0,0,0,0,0,-0.0202,-0.0203,-0.0283,-0.0288,-0.052,-0.0521,-0.0789,-0.0791,0,0,0,0,0,0,0,0,0,0,0,-0.0201,-0.0203,-0.0204,-0.0289,-0.0519,-0.0521,-0.0788,-0.0626,0,0,0,0,0,0,0,0,0,0,-0.0406,-0.0296,-0.0203,-0.0204,-0.029,-0.0519,-0.0521,-0.0619,-0.0636,-0.0668,0,-0.0694,0,-0.0739,-0.0806,-0.0807,0,0,0,-0.0311,-0.0281,-0.0371,-0.0204,-0.0291,-0.0519,-0.0422,-0.0629,-0.0648,-0.0691,-0.0698,-0.0708,-0.0744,-0.0808,-0.0809,-0.0804,-0.0802,0,0,-0.0298,-0.0224,-0.0357,-0.0383,-0.0338,-0.0414,-0.0428,-0.0641,-0.0638,-0.0699,-0.0715,-0.0748,-0.0809,-0.0811,-0.0806,-0.0804,0,0,0,-0.0246,-0.0214,-0.03,-0.0371,-0.0411,-0.042,-0.0437,-0.0629,-0.0665,-0.0718,-0.0751,-0.0811,-0.0813,-0.0808,-0.0805,-0.0663,0,0,0,-0.0239,-0.0183,-0.0294,-0.0249,-0.0406,-0.0518,-0.0418,-0.0651,-0.0676,-0.075,-0.0811,-0.0816,-0.081,-0.0806,-0.0671,-0.0596,0,0,0,-0.0194,-0.0177,-0.0207,-0.0245,-0.0339,-0.0516,-0.0565,-0.0658,-0.0695,-0.0807,-0.0816,-0.0811,-0.0807,-0.0678,-0.0609,-0.05,0,0,0,-0.0109,-0.0129,-0.0204,-0.0237,-0.0336,-0.0425,-0.0564,-0.0647,-0.0728,-0.0812,-0.0809,-0.0805,-0.0681,-0.0616,-0.0508,-0.0338,-0.0288,0,0,-0.0089,-0.0124,-0.0149,-0.0222,-0.0278,-0.0396,-0.0404,-0.0577,-0.0669,-0.0747,-0.0749,-0.0669,-0.061,-0.0502,-0.0097,-0.0054,0,0,0,-0.0114,-0.0126,-0.0158,-0.021,-0.0295,-0.0322,-0.0465,-0.0489,-0.0552,-0.0696,-0.0623,-0.0589,-0.0527,-0.0439,-0.0404,-0.0452,-0.0786,-0.0786,-0.0787,0.002,-0.0058,-0.0071,-0.0157,-0.019,-0.0265,-0.0271,-0.0316,-0.0446,-0.0405,-0.0441,-0.0214,-0.0115,-0.0088,-0.0139,-0.041,-0.0409,-0.0409,-0.0409,0.0072,0.0069,0.001,-0.0027,-0.0055,-0.0055,-0.0086,-0.0135,-0.0107,-0.0235,-0.0182,-0.0252,-0.0041,-0.011,-0.0399,-0.04,-0.0402,-0.0403,-0.0403,0.0173,0.0168,0.0131,0.0114,0.0136,0.0088,0.0177,0.0105,0.0047,0.0088,0.0153,0.0151,0.006,0.0097,0.0098,0.0099,0.01,0.01,0.0101,0.0307,0.0265,0.03,0.0268,0.0291,0.0331,0.0326,0.0367,0.0394,0.0353,0.0353,0.0173,-0.006,-0.0116,0.0114,0.0112,0.011,0.0109,0.0108,0.0421,0.0417,0.0464,0.0492,0.0533,0.0647,0.0629,0.0755,0.0765,0.0828,0.0624,0.0499,0.047,0.0442,0.04,0.0749,0.0749,0.0749,0.0749,0.0532,0.0522,0.0613,0.0679,0.076,0.08,0.1052,0.113,0.1047,0.1007,0.0858,0.0767,0.0743,0.072,0.0686,0.0643,0.1047,0.1047,0.1046,0.0621,0.0638,0.073,0.0768,0.0852,0.0991,0.1257,0.1429,0.1273,0.1042,0.0763,0.0751,0.0587,0.0552,0.0479,0.0435,0.0349,0,0]}],[{"header":{"parameterUnit":"m.s-1","parameterCategory":2,"la1":30.2992,"la2":30.254,"lo1":-89.0895,"lo2":-89.0443,"dy":0.0025,"dx":0.0025,"nx":19,"ny":19,"refTime":"2026-04-24T21:00:00:Z","depth":"2","parameterNumber":2,"parameterNumberName":"U-component_of_CURRENTS"},"data":[0,0,0,0.2995,0.2998,0.3129,0.3129,0.3196,0.3197,0,0,0,0,0,0,0,0,0,0,0,0.2937,0.2938,0.2994,0.2998,0.3129,0.3129,0.3196,0.3197,0,0,0,0,0,0,0,0,0,0,0,0.2936,0.2937,0.2939,0.2999,0.3129,0.3129,0.3196,0.3117,0,0,0,0,0,0,0,0,0,0,0.3,0.2934,0.2937,0.2939,0.3,0.3129,0.3129,0.3114,0.3122,0.3116,0,0.3149,0,0.3189,0.3201,0.3201,0,0,0,0.2976,0.2927,0.3005,0.2939,0.3001,0.3129,0.3064,0.3119,0.3128,0.3126,0.315,0.3154,0.319,0.3202,0.3202,0.3283,0.3283,0,0,0.2969,0.2915,0.3,0.3011,0.3051,0.306,0.3068,0.3125,0.3113,0.3151,0.3157,0.3191,0.3202,0.3203,0.3282,0.3283,0,0,0,0.2963,0.2909,0.2986,0.3007,0.3048,0.3064,0.3074,0.311,0.3149,0.3158,0.3192,0.3202,0.3203,0.3282,0.3282,0.334,0,0,0,0.2958,0.2909,0.2983,0.2946,0.3048,0.3086,0.3056,0.3144,0.3153,0.3192,0.3202,0.3204,0.3281,0.3282,0.3337,0.3356,0,0,0,0.2928,0.2904,0.2935,0.2944,0.3018,0.3088,0.3127,0.3147,0.3174,0.3201,0.3204,0.3281,0.3282,0.3335,0.3353,0.326,0,0,0,0.2847,0.2876,0.2933,0.2969,0.3017,0.3093,0.3127,0.3173,0.3196,0.3203,0.3281,0.3282,0.3334,0.335,0.326,0.3052,0.3036,0,0,0.2842,0.2873,0.2899,0.2955,0.3025,0.3073,0.3131,0.3184,0.3208,0.325,0.3253,0.3338,0.3352,0.326,0.3108,0.309,0,0,0,0.2871,0.2897,0.2921,0.2982,0.3047,0.3118,0.3172,0.3213,0.3295,0.3235,0.3342,0.3349,0.3287,0.3163,0.3149,0.3287,0.3287,0.3287,0.3287,0.2799,0.2869,0.2914,0.301,0.3056,0.3151,0.3232,0.3305,0.33,0.3359,0.3399,0.3375,0.3247,0.3233,0.3404,0.3405,0.3405,0.3405,0.3405,0.2807,0.2826,0.2931,0.3009,0.31,0.3161,0.3303,0.3357,0.3438,0.3453,0.3389,0.3236,0.3221,0.341,0.3409,0.3408,0.3408,0.3407,0.3407,0.2733,0.2749,0.2849,0.2968,0.3074,0.318,0.327,0.3388,0.346,0.3494,0.3218,0.3214,0.3357,0.339,0.3389,0.3389,0.3389,0.3389,0.3389,0.2595,0.2696,0.2735,0.2897,0.2972,0.3078,0.3228,0.3277,0.3235,0.3247,0.3244,0.3367,0.3368,0.3353,0.3384,0.3385,0.3386,0.3386,0.3386,0.2437,0.2489,0.2561,0.2635,0.2807,0.2742,0.2962,0.2914,0.2958,0.2879,0.3083,0.3092,0.3026,0.3034,0.301,0.295,0.295,0.295,0.295,0.2283,0.232,0.2375,0.2449,0.2516,0.2578,0.2363,0.2361,0.2495,0.2533,0.2551,0.2528,0.2555,0.2463,0.2484,0.2449,0.2242,0.2241,0.224,0.2143,0.2209,0.2173,0.2299,0.2363,0.2295,0.1952,0.1749,0.1903,0.2213,0.2441,0.29,0.2917,0.2939,0.2839,0.2858,0.2818,0,0]},{"header":{"parameterUnit":"m.s-1","parameterCategory":2,"la1":30.2992,"la2":30.254,"lo1":-89.0895,"lo2":-89.0443,"dy":0.0025,"dx":0.0025,"nx":19,"ny":19,"refTime":"2026-04-24T21:00:00:Z","depth":"2","parameterNumber":3,"parameterNumberName":"V-component_of_CURRENTS"},"data":[0,0,0,0.0142,0.0139,-0.0014,-0.0015,-0.0136,-0.0137,0,0,0,0,0,0,0,0,0,0,0,0.0197,0.0196,0.0142,0.0139,-0.0014,-0.0015,-0.0136,-0.0137,0,0,0,0,0,0,0,0,0,0,0,0.0198,0.0196,0.0195,0.0138,-0.0014,-0.0015,-0.0136,-0.004,0,0,0,0,0,0,0,0,0,0,0.0099,0.0151,0.0197,0.0195,0.0137,-0.0013,-0.0015,-0.0036,-0.0046,-0.0044,0,-0.0068,0,-0.0102,-0.0143,-0.0143,0,0,0,0.0133,0.0159,0.0108,0.0195,0.0136,-0.0013,0.0053,-0.0042,-0.0053,-0.0056,-0.007,-0.0075,-0.0104,-0.0143,-0.0144,-0.0108,-0.0107,0,0,0.0142,0.0179,0.0115,0.0101,0.0097,0.0058,0.0049,-0.005,-0.0052,-0.007,-0.0079,-0.0106,-0.0144,-0.0144,-0.0109,-0.0107,0,0,0,0.017,0.0185,0.0134,0.0107,0.0074,0.0054,0.0043,-0.0048,-0.0068,-0.008,-0.0108,-0.0144,-0.0145,-0.011,-0.0108,0.0007,0,0,0,0.0174,0.0201,0.0139,0.016,0.0076,0.0004,0.0047,-0.0062,-0.0074,-0.0107,-0.0144,-0.0146,-0.0111,-0.0109,0.0001,0.0042,0,0,0,0.0204,0.0205,0.0184,0.0163,0.0097,0.0004,-0.0022,-0.0066,-0.009,-0.0143,-0.0146,-0.0112,-0.0109,-0.0004,0.0034,0.0162,0,0,0,0.025,0.0238,0.0186,0.0168,0.0098,0.0073,-0.0022,-0.0063,-0.01,-0.0145,-0.0111,-0.0108,-0.0006,0.0029,0.0155,0.0189,0.022,0,0,0.0266,0.0241,0.0232,0.0181,0.0183,0.0094,0.013,0.0023,-0.0056,-0.0077,-0.0078,0.0003,0.0033,0.016,0.0333,0.0361,0,0,0,0.0257,0.0261,0.0249,0.0231,0.0193,0.0206,0.0116,0.0097,0.0051,-0.0068,0.0022,0.0037,0.0114,0.0122,0.0144,-0.0096,-0.0097,-0.0097,-0.0097,0.0333,0.031,0.0335,0.032,0.0316,0.0287,0.0291,0.0254,0.0157,0.0168,0.0146,0.0337,0.0346,0.0363,0.0166,0.0167,0.0167,0.0168,0.0168,0.041,0.0435,0.0431,0.0439,0.0447,0.0464,0.046,0.0404,0.0421,0.03,0.037,0.0259,0.0394,0.0177,0.0176,0.0174,0.0173,0.0173,0.0172,0.0493,0.0508,0.0499,0.0544,0.0578,0.0557,0.0647,0.0591,0.0523,0.0559,0.0575,0.0572,0.0413,0.0597,0.0598,0.0599,0.06,0.06,0.0601,0.0575,0.0584,0.0639,0.0659,0.0677,0.0717,0.0751,0.0781,0.078,0.0709,0.0709,0.0482,0.0468,0.0439,0.0613,0.0611,0.0609,0.0608,0.0607,0.0664,0.0672,0.0761,0.0795,0.0869,0.097,0.0999,0.1057,0.1084,0.1076,0.0818,0.0809,0.0781,0.0761,0.0739,0.0981,0.0981,0.0981,0.0981,0.0722,0.0741,0.0856,0.0945,0.1059,0.1095,0.1252,0.1214,0.1115,0.1018,0.1016,0.0906,0.0891,0.0861,0.0838,0.0813,0.1075,0.1075,0.1075,0.0779,0.0812,0.0894,0.0985,0.1111,0.1243,0.1318,0.1219,0.1059,0.1074,0.0984,0.0997,0.0823,0.0804,0.0739,0.0711,0.0663,0,0]}],[{"header":{"parameterUnit":"m.s-1","parameterCategory":2,"la1":30.2992,"la2":30.254,"lo1":-89.0895,"lo2":-89.0443,"dy":0.0025,"dx":0.0025,"nx":19,"ny":19,"refTime":"2026-04-24T21:00:00:Z","depth":"4","parameterNumber":2,"parameterNumberName":"U-component_of_CURRENTS"},"data":[0,0,0,0.0632,0.0632,0.0633,0.0634,0.0695,0.0696,0,0,0,0,0,0,0,0,0,0,0,0.0648,0.0649,0.0632,0.0632,0.0633,0.0634,0.0695,0.0696,0,0,0,0,0,0,0,0,0,0,0,0.0648,0.0649,0.0649,0.0632,0.0633,0.0634,0.0695,0.0682,0,0,0,0,0,0,0,0,0,0,0.0674,0.0691,0.0649,0.0649,0.0632,0.0633,0.0634,0.0681,0.0683,0.0707,0,0.0711,0,0.0693,0.07,0.07,0,0,0,0.0645,0.0689,0.067,0.0649,0.0631,0.0633,0.0636,0.0682,0.0684,0.071,0.0711,0.0712,0.0694,0.07,0.0701,0.0905,0.0906,0,0,0.0644,0.0669,0.0668,0.0671,0.0637,0.0636,0.0636,0.0682,0.07,0.0711,0.0713,0.0695,0.0701,0.0701,0.0903,0.0905,0,0,0,0.0636,0.0669,0.0648,0.067,0.0659,0.0636,0.0636,0.0699,0.0686,0.0714,0.0696,0.0701,0.0702,0.0901,0.0904,0.1022,0,0,0,0.0636,0.0662,0.0648,0.0665,0.0658,0.0673,0.0652,0.0684,0.0687,0.0695,0.0701,0.0703,0.0899,0.0903,0.1015,0.1037,0,0,0,0.0647,0.0663,0.066,0.0666,0.0656,0.0671,0.0663,0.0684,0.0676,0.07,0.0703,0.0898,0.0902,0.1008,0.1027,0.1121,0,0,0,0.0676,0.0661,0.0662,0.0657,0.0656,0.0651,0.0662,0.0704,0.0733,0.0702,0.0899,0.0904,0.1006,0.1021,0.1115,0.0842,0,0,0,0.0661,0.0661,0.0657,0.0655,0.0636,0.0652,0.0743,0.0806,0.0811,0.0885,0.089,0.1017,0.1027,0.112,0.1091,0,0,0,0,0.0654,0.063,0.0629,0.0629,0.0645,0.0734,0.0777,0.085,0.0986,0.0842,0.107,0.1072,0.1126,0.0952,0.0924,0.0923,0.0923,0.0922,0.0922,0.0686,0.0663,0.066,0.0642,0.0679,0.0823,0.0934,0.1057,0.105,0.1166,0.1209,0.141,0.1237,0.1269,0.1269,0.127,0.1271,0.1271,0.1271,0.065,0.0654,0.0682,0.0664,0.0797,0.0911,0.11,0.1192,0.1408,0.1359,0.1407,0.1138,0.1284,0.1282,0.128,0.1278,0.1277,0.1276,0.1276,0.0669,0.0666,0.0676,0.0706,0.0867,0.1006,0.121,0.1392,0.1481,0.1594,0.1431,0.1498,0.1442,0.165,0.165,0.1651,0.1651,0.1652,0.1652,0.0713,0.0705,0.0714,0.0748,0.0814,0.0989,0.1287,0.1396,0.156,0.1532,0.165,0.1537,0.1525,0.1465,0.1661,0.166,0.1658,0.1658,0.1657,0.0684,0.0742,0.0699,0.0728,0.081,0.0921,0.1177,0.1362,0.1495,0.1508,0.1495,0.15,0.1425,0.1416,0.1347,0.1516,0.1513,0.1511,0,0.0735,0.0733,0.0727,0.0704,0.0734,0.0867,0.098,0.1149,0.1317,0.1275,0.1483,0.1463,0.1466,0.1371,0.1359,0.1273,0,0,0,0.0758,0.0747,0.0743,0.0692,0.0677,0.082,0.102,0.1047,0.1279,0.1302,0.1441,0.1459,0.1504,0.1688,0.1585,0.157,0.1468,0,0]},{"header":{"parameterUnit":"m.s-1","parameterCategory":2,"la1":30.2992,"la2":30.254,"lo1":-89.0895,"lo2":-89.0443,"dy":0.0025,"dx":0.0025,"nx":19,"ny":19,"refTime":"2026-04-24T21:00:00:Z","depth":"4","parameterNumber":3,"parameterNumberName":"V-component_of_CURRENTS"},"data":[0,0,0,0.0539,0.0541,0.0639,0.0639,0.0661,0.0661,0,0,0,0,0,0,0,0,0,0,0,0.0516,0.0517,0.0538,0.0541,0.0639,0.0639,0.0661,0.0661,0,0,0,0,0,0,0,0,0,0,0,0.0515,0.0516,0.0518,0.0541,0.0639,0.0639,0.0661,0.0613,0,0,0,0,0,0,0,0,0,0,0.0531,0.0514,0.0516,0.0518,0.0542,0.0639,0.0639,0.0612,0.0616,0.0587,0,0.0616,0,0.0631,0.066,0.066,0,0,0,0.0542,0.0511,0.0545,0.0518,0.0543,0.0639,0.0595,0.0615,0.0619,0.0591,0.0617,0.0618,0.0632,0.066,0.066,0.0596,0.0596,0,0,0.0536,0.052,0.0543,0.0549,0.0584,0.0592,0.0598,0.0619,0.0622,0.0617,0.0619,0.0632,0.066,0.066,0.0597,0.0596,0,0,0,0.052,0.0516,0.0552,0.0547,0.057,0.0595,0.0602,0.0622,0.0637,0.0619,0.0632,0.066,0.0659,0.0597,0.0596,0.0679,0,0,0,0.0517,0.0507,0.055,0.0539,0.057,0.0608,0.0604,0.0636,0.0639,0.0632,0.066,0.0659,0.0598,0.0597,0.0679,0.0717,0,0,0,0.0508,0.0505,0.0524,0.0538,0.0581,0.0609,0.0626,0.0638,0.0646,0.066,0.0659,0.0598,0.0597,0.0678,0.0715,0.0713,0,0,0,0.0476,0.0509,0.0524,0.0561,0.058,0.0618,0.0626,0.0661,0.0677,0.066,0.0598,0.0596,0.0678,0.0714,0.0712,0.0676,0,0,0,0.0497,0.0511,0.0533,0.0549,0.0598,0.0604,0.0636,0.067,0.0635,0.0585,0.0585,0.0679,0.0715,0.0713,0.0593,0,0,0,0,0.0525,0.0541,0.0558,0.0594,0.0622,0.0643,0.0658,0.0658,0.0647,0.0637,0.0627,0.0646,0.0643,0.0615,0.059,0.059,0.059,0.059,0.059,0.0502,0.0539,0.0586,0.0622,0.064,0.0672,0.0685,0.0669,0.0651,0.0641,0.0675,0.0678,0.0648,0.0628,0.0628,0.0628,0.0629,0.0629,0.0629,0.0524,0.0566,0.0608,0.0677,0.0706,0.0739,0.0709,0.0711,0.0705,0.068,0.0673,0.0657,0.0636,0.0634,0.0633,0.0633,0.0632,0.0632,0.0631,0.0522,0.0556,0.0617,0.0707,0.0791,0.0806,0.0849,0.0831,0.076,0.0779,0.0722,0.0713,0.075,0.078,0.078,0.078,0.0781,0.0781,0.0781,0.0507,0.0568,0.0645,0.0743,0.0829,0.0902,0.0936,0.091,0.0852,0.0795,0.0806,0.0728,0.0723,0.0755,0.0783,0.0783,0.0782,0.0782,0.0782,0.0513,0.0555,0.0648,0.0738,0.0901,0.0952,0.0988,0.0923,0.0891,0.0814,0.0777,0.0776,0.0738,0.0732,0.0764,0.0796,0.0796,0.0796,0,0.0513,0.0536,0.0668,0.0786,0.0888,0.0972,0.0934,0.0908,0.0825,0.0813,0.0856,0.0817,0.0814,0.0773,0.0768,0.0805,0,0,0,0.0515,0.0557,0.0642,0.0771,0.0897,0.0905,0.0924,0.0886,0.0856,0.0797,0.0787,0.079,0.0802,0.0791,0.073,0.0724,0.0772,0,0]}]]